Harlan, KY

10:23 PM EST on November 16, 2019 (GMT -0500)
Harlan

Weather History for KI35 - September, 2019

Change the Weather History Date:

Thursday, September 12, 2019

  Actual Average (WUND) Record (WUND)
Temperature  
Mean Temperature 78 °F -  
Max Temperature 90 °F - - (-1)
Min Temperature 66 °F - - (-1)
Cooling Degree Days 13    
Growing Degree Days 28 (Base 50)    
Moisture  
Dew Point 68 °F    
Average Humidity 80    
Maximum Humidity 100    
Minimum Humidity 42    
Precipitation  
Precipitation 0.00 in - - ()
Sea Level Pressure  
Sea Level Pressure 30.21 in    
Wind  
Wind Speed 0 mph ()    
Max Wind Speed 6 mph    
Max Gust Speed -    
Visibility 6.3 miles    
Events      
Averages and records for this station are not official NWS values.
T = Trace of Precipitation, MM = Missing Value Source: Averaged Metar Reports

Daily Weather History Graph

Daily Weather History Graph

Search for Another Location

Airport or City:

Astronomy

Sep. 12, 2019 Rise Set
Actual Time 7:13 AM EDT 7:45 PM EDT
Civil Twilight 6:46 AM EDT 8:11 PM EDT
Nautical Twilight 6:16 AM EDT 8:42 PM EDT
Astronomical Twilight 5:44 AM EDT 9:13 PM EDT
Moon 7:26 PM EDT (9/12) 5:35 AM EDT (9/12)
Length of Visible Light 13h 24m
Length of Day
12h 32m
Waxing Gibbous, 98% of the Moon is Illuminated
Sep 12
Waxing Gibbous
Sep 14
Full
Sep 21
Last Quarter
Sep 28
New
Oct 5
First Quarter

Hourly Weather History & Observations

Time (EDT) Temp. Heat Index Dew Point Humidity Pressure Visibility Wind Dir Wind Speed Gust Speed Precip Events Conditions
12:15 AM 69.8 °F - 69.1 °F 98% 30.23 in 5.0 mi Calm Calm - N/A   Clear
12:35 AM 69.3 °F - 68.9 °F 99% 30.23 in 4.0 mi Calm Calm - N/A   Scattered Clouds
12:55 AM 68.9 °F - 68.4 °F 98% 30.22 in 4.0 mi Calm Calm - N/A   Scattered Clouds
1:15 AM 68.7 °F - 68.2 °F 98% 30.22 in 5.0 mi Calm Calm - N/A   Mostly Cloudy
1:35 AM 68.9 °F - 68.2 °F 98% 30.22 in 2.0 mi Calm Calm - N/A   Overcast
1:55 AM 68.5 °F - 68.0 °F 98% 30.22 in 4.0 mi Calm Calm - N/A   Overcast
2:15 AM 68.4 °F - 68.0 °F 99% 30.22 in 4.0 mi Calm Calm - N/A   Overcast
2:35 AM 68.4 °F - 68.0 °F 99% 30.21 in 1.5 mi Calm Calm - N/A   Overcast
2:55 AM 68.0 °F - 67.8 °F 99% 30.21 in 0.5 mi Calm Calm - N/A   Overcast
3:15 AM 68.0 °F - 68.0 °F 100% 30.21 in 1.0 mi Calm Calm - N/A   Overcast
3:35 AM 68.0 °F - 68.0 °F 100% 30.21 in 0.2 mi Calm Calm - N/A   Overcast
3:55 AM 68.0 °F - 67.6 °F 99% 30.21 in 0.2 mi Calm Calm - N/A   Overcast
4:15 AM 67.6 °F - 67.6 °F 100% 30.21 in 0.2 mi Calm Calm - N/A   Overcast
4:55 AM 67.5 °F - 67.5 °F 100% 30.22 in 0.2 mi Calm Calm - N/A   Overcast
5:15 AM 67.5 °F - 67.3 °F 99% 30.22 in 0.5 mi Calm Calm - N/A   Overcast
5:35 AM 67.1 °F - 67.1 °F 100% 30.22 in 0.2 mi Calm Calm - N/A   Overcast
5:55 AM 67.1 °F - 67.1 °F 100% 30.22 in 0.2 mi Calm Calm - N/A   Overcast
6:15 AM 67.1 °F - 67.1 °F 100% 30.23 in 0.2 mi Calm Calm - N/A   Overcast
6:35 AM 67.1 °F - 67.1 °F 100% 30.24 in 0.5 mi Calm Calm - N/A   Overcast
6:55 AM 67.1 °F - 67.1 °F 100% 30.25 in 0.2 mi Calm Calm - N/A   Overcast
7:15 AM 66.9 °F - 66.9 °F 100% 30.25 in 0.2 mi Calm Calm - N/A   Overcast
7:35 AM 66.6 °F - 66.6 °F 100% 30.26 in 0.2 mi Calm Calm - N/A   Overcast
7:55 AM 66.4 °F - 66.4 °F 100% 30.27 in 0.2 mi Calm Calm - N/A   Overcast
8:15 AM 66.7 °F - 66.7 °F 100% 30.27 in 0.2 mi Calm Calm - N/A   Overcast
8:35 AM 67.1 °F - 67.1 °F 100% 30.27 in 0.2 mi Calm Calm - N/A   Overcast
8:55 AM 67.3 °F - 67.3 °F 100% 30.27 in 0.2 mi Calm Calm - N/A   Overcast
9:15 AM 67.1 °F - 67.1 °F 100% 30.27 in 0.2 mi Calm Calm - N/A   Overcast
9:35 AM 67.3 °F - 67.3 °F 100% 30.28 in 0.8 mi Calm Calm - N/A   Overcast
9:55 AM 69.4 °F - 68.0 °F 95% 30.28 in 10.0 mi Calm Calm - N/A   Mostly Cloudy
10:15 AM 72.3 °F - 68.5 °F 88% 30.27 in 7.0 mi Calm Calm - N/A   Clear
10:35 AM 76.6 °F - 69.3 °F 78% 30.26 in 10.0 mi Calm Calm - N/A   Clear
10:55 AM 77.5 °F - 69.3 °F 76% 30.26 in 10.0 mi Calm Calm - N/A   Clear
11:15 AM 79.9 °F - 69.6 °F 71% 30.26 in 10.0 mi Calm Calm - N/A   Clear
11:35 AM 82.2 °F 86.0 °F 69.6 °F 66% 30.25 in 10.0 mi Calm Calm - N/A   Clear
11:55 AM 83.7 °F 87.2 °F 68.7 °F 61% 30.25 in 10.0 mi Calm Calm - N/A   Clear
12:15 PM 84.4 °F 88.2 °F 68.9 °F 60% 30.24 in 10.0 mi Calm Calm - N/A   Scattered Clouds
12:35 PM 86.9 °F 91.0 °F 68.9 °F 55% 30.23 in 10.0 mi Calm Calm - N/A   Scattered Clouds
12:55 PM 87.6 °F 92.3 °F 69.4 °F 55% 30.22 in 10.0 mi Calm Calm - N/A   Scattered Clouds
1:15 PM 87.3 °F 90.5 °F 67.5 °F 52% 30.22 in 10.0 mi SSE 3.5 mph - N/A   Mostly Cloudy
1:35 PM 88.9 °F 92.2 °F 67.6 °F 49% 30.21 in 10.0 mi South 5.8 mph - N/A   Mostly Cloudy
1:55 PM 90.3 °F 93.4 °F 66.7 °F 46% 30.21 in 10.0 mi Calm Calm - N/A   Mostly Cloudy
2:15 PM 88.9 °F 91.4 °F 66.2 °F 47% 30.20 in 10.0 mi West 4.6 mph - N/A   Overcast
2:35 PM 89.4 °F 91.9 °F 66.4 °F 46% 30.19 in 10.0 mi Calm Calm - N/A   Scattered Clouds
2:55 PM 89.8 °F 92.5 °F 66.2 °F 46% 30.19 in 10.0 mi Calm Calm - N/A   Scattered Clouds
3:15 PM 88.9 °F 91.4 °F 66.0 °F 47% 30.18 in 10.0 mi SSW 3.5 mph - N/A   Mostly Cloudy
3:35 PM 88.5 °F 91.6 °F 66.9 °F 49% 30.18 in 10.0 mi Calm Calm - N/A   Scattered Clouds
3:55 PM 88.3 °F 90.9 °F 66.6 °F 48% 30.17 in 10.0 mi Calm Calm - N/A   Clear
4:15 PM 90.7 °F 92.4 °F 64.9 °F 42% 30.16 in 10.0 mi SSW 4.6 mph - N/A   Scattered Clouds
4:35 PM 88.7 °F 91.1 °F 66.0 °F 47% 30.17 in 10.0 mi Calm Calm - N/A   Mostly Cloudy
5:15 PM 86.0 °F 89.4 °F 68.2 °F 55% 30.16 in 10.0 mi Calm Calm - N/A   Scattered Clouds
5:35 PM 89.1 °F 91.7 °F 66.4 °F 47% 30.15 in 10.0 mi Calm Calm - N/A   Scattered Clouds
5:55 PM 89.8 °F 92.1 °F 66.0 °F 45% 30.15 in 10.0 mi WSW 3.5 mph - N/A   Scattered Clouds
6:15 PM 90.0 °F 91.7 °F 64.9 °F 43% 30.15 in 10.0 mi WSW 3.5 mph - N/A   Scattered Clouds
7:15 PM 86.2 °F 89.1 °F 67.1 °F 53% 30.16 in 10.0 mi Calm Calm - N/A   Clear
7:35 PM 84.0 °F 87.0 °F 68.0 °F 58% 30.16 in 10.0 mi Calm Calm - N/A   Mostly Cloudy
7:55 PM 81.0 °F 84.1 °F 68.9 °F 67% 30.16 in 7.0 mi Calm Calm - N/A   Mostly Cloudy
8:15 PM 78.3 °F - 68.5 °F 72% 30.17 in 10.0 mi Calm Calm - N/A   Mostly Cloudy
8:35 PM 77.2 °F - 68.4 °F 74% 30.18 in 10.0 mi Calm Calm - N/A   Scattered Clouds
8:55 PM 76.1 °F - 68.9 °F 78% 30.18 in 10.0 mi Calm Calm - N/A   Scattered Clouds
9:15 PM 75.0 °F - 69.1 °F 82% 30.20 in 10.0 mi Calm Calm - N/A   Clear
9:35 PM 73.6 °F - 69.3 °F 86% 30.20 in 10.0 mi Calm Calm - N/A   Clear
9:55 PM 72.9 °F - 69.3 °F 88% 30.20 in 10.0 mi Calm Calm - N/A   Clear
10:15 PM 72.0 °F - 69.3 °F 91% 30.20 in 10.0 mi Calm Calm - N/A   Clear
10:35 PM 71.4 °F - 69.1 °F 92% 30.20 in 10.0 mi Calm Calm - N/A   Clear
10:55 PM 71.2 °F - 68.9 °F 92% 30.20 in 10.0 mi Calm Calm - N/A   Clear
11:15 PM 70.3 °F - 68.5 °F 94% 30.20 in 10.0 mi Calm Calm - N/A   Clear
11:35 PM 70.0 °F - 68.4 °F 95% 30.21 in 10.0 mi Calm Calm - N/A   Clear
11:55 PM 69.4 °F - 68.4 °F 96% 30.21 in 7.0 mi Calm Calm - N/A   Clear